THOR BURNER 2 R/B

Satellite information

Favourite Embed

Satellite Type and Status

ROCKET BODYIN ORBIT

Key statistics

Satellite THOR BURNER 2 R/B at a glance.

Uptime

21583

Days in orbit

Revolutions

≈ 14.5

Per day

Orbit

SSO

Sun Synchronous Orbit

Inclination

98.2

Latest

Satellite identification and parameters

Extended collection of information and parameters for THOR BURNER 2 R/B.

Object identification

Identified? True

Debris? False

Object name: THOR BURNER 2 R/B

International designator: 1966-082B

Object number (NORAD): 2422

Object ID (CCSDS): 2422

Country: UNITED STATES OF AMERICA (US)

Current information (Y/N): Y

RCS size: LARGE

Orbital parameters

Period: 99.553 minutes

Inclination: 98.2143 deg

SMA: 7115.333 km

Apoapsis: 815.305 km

Periapsis: 659.09 km

RAAN: 88.5536 deg

Eccentricy: 0.0109774

Argument of periapsis: 222.6872 deg

Mean anomaly: 136.5754 deg

Mean motion: 14.46471737 rev/day

Mean motion (dot): 0.00001122 rev/day2

B* drag term: 0.00030157442 1/REarth

Two-line elements (TLE)

Creation date: Oct. 19, 2025, 2:20 a.m.

Reference frame: TEME

Reference center: EARTH

Epoch: Oct. 18, 2025, 10:38 p.m. UTC

TLE line 0: 0 THOR BURNER 2 R/B

TLE line 1: 1 02422U 66082B 25291.94318824 .00001122 00000-0 30157-3 0 9995

TLE line 2: 2 02422 98.2143 88.5536 0109774 222.6872 136.5754 14.46471737 80396

Live tracking on map

Real-time ground track for satellite THOR BURNER 2 R/B.

In-orbit conjunctions

A list of the most updated potential collisions computed for object THOR BURNER 2 R/B.

Target Orbit TCA Probability of collision Miss distance Type
COSMOS 2251 DEB LEO 2025-08-01 12:09:41 0.0001877897 257.0 (m) DEBRIS
NOAA 16 DEB SSO 2025-05-15 02:19:11 0.000103265 488.0 (m) DEBRIS
SL-14 DEB LEO 2025-05-06 08:28:47 0.000175618 511.0 (m) DEBRIS
FENGYUN 1C DEB SSO 2025-04-20 00:30:08 0.0002518219 294.0 (m) DEBRIS
COSMOS 1375 DEB LEO 2025-03-10 12:58:14 0.0003028478 142.0 (m) DEBRIS

Associated space launch

DSAP-4A (Defense Satellite Application Program Block 4A) was the fourth version of the military meteorological satellites of the Defense Meteorological Satellite Program.

THOR BURNER 2 R/B was lifted into orbit during the mission ‘Thor Burner 2 | DSAP-4A F1’, on board a Thor Burner 2 space rocket.

The launch took place on Sept. 16, 1966, 4:36 a.m. from Space Launch Complex 10W.

For more information about the launch, click the button.

Launch to space Thor Burner 2 | DSAP-4A F1
Thor Burner 2 | DSAP-4A F1

Agency: N/A

Status: Launch Successful

Launch date: Sept. 16, 1966, 4:36 a.m. UTC

Rocket: Thor Burner 2

Launch pad: Space Launch Complex 10W

Location: Vandenberg SFB, CA, USA

...

Latest news about this satellite

There are no fresh news available about this satellite. Check back as we update our databases every day.


Newsletter sign-up

Weekly statistics, charts and insights to help you stay on top of the space industry.